Location: Banios
(43.0451°N, 0.2335°E)
Time: 13:38:37
(UTC+00:00)

A-11 Canister half - Pass Details

Date: 08 May 2021
Orbit: 1513 x 1686 km, 47.2° (Epoch: 14 June)

Event Time Altitude Azimuth Distance (km) Brightness Sun altitude
Rises 13:14:25 0° 176° (S) 4,672 11.8 59.3°
Reaches altitude 10° 13:19:18 10° 154° (SSE) 3,675 11.3 58.7°
Maximum altitude 13:23:49 15° 124° (SE) 3,306 10.9 58.1°
Drops below altitude 10° 13:28:19 10° 94° (E) 3,671 10.9 57.6°
Sets 13:33:09 0° 73° (ENE) 4,664 11.2 56.9°
